ACA205 CYQT-CYWG

Flight info

Callsign ACA205
Flight time 0h 57m
Altitude 36000
Route INL DCT GOVIT NORAK6
Aircraft A339/H-SADE1E2E3GHIJ3J5M1P2RWXY/LB2D1

Departure

Time 2026-04-24 00:58
Airport Thunder Bay International Airport (CYQT)

Arrival

Time 2026-04-24 01:55
Airport Winnipeg / James Armstrong Richardson International Airport (CYWG)
Time Latitude Longitude Altitude Speed Heading
2026-04-24 00:35 48.37226 -89.31275 657 ft 0 kts 131°
2026-04-24 00:49 48.37228 -89.31278 658 ft 2 kts 130°
2026-04-24 00:49 48.37237 -89.31292 657 ft 2 kts 121°
2026-04-24 00:49 48.37244 -89.31308 656 ft 2 kts 108°
2026-04-24 00:50 48.37248 -89.31326 657 ft 2 kts 95°
2026-04-24 00:50 48.37249 -89.31346 659 ft 2 kts 82°
2026-04-24 00:50 48.37247 -89.31367 656 ft 2 kts 69°
2026-04-24 00:50 48.37242 -89.31391 656 ft 3 kts 52°
2026-04-24 00:51 48.37238 -89.31402 657 ft 0 kts 27°
2026-04-24 00:54 48.37239 -89.31400 659 ft 2 kts 29°
2026-04-24 00:54 48.37279 -89.31346 657 ft 12 kts 27°
2026-04-24 00:54 48.37302 -89.31377 659 ft 8 kts 296°
2026-04-24 00:55 48.37280 -89.31527 659 ft 21 kts 251°
2026-04-24 00:55 48.37214 -89.31808 661 ft 33 kts 250°
2026-04-24 00:55 48.37136 -89.32139 662 ft 34 kts 250°
2026-04-24 00:55 48.37106 -89.32436 663 ft 25 kts 292°
2026-04-24 00:56 48.37167 -89.32683 665 ft 28 kts 267°
2026-04-24 00:56 48.37100 -89.33057 666 ft 44 kts 255°
2026-04-24 00:56 48.37050 -89.33289 668 ft 1 kts 223°
2026-04-24 00:56 48.37033 -89.33265 669 ft 5 kts 125°
2026-04-24 00:57 48.37043 -89.33234 668 ft 1 kts 65°
2026-04-24 00:57 48.37079 -89.33095 664 ft 51 kts 69°
2026-04-24 00:57 48.37659 -89.30637 1022 ft 166 kts 70°
2026-04-24 00:58 48.38055 -89.28910 1697 ft 182 kts 73°
2026-04-24 00:58 48.38494 -89.27070 2484 ft 193 kts 76°
2026-04-24 00:58 48.39036 -89.25124 3066 ft 219 kts 66°
2026-04-24 00:58 48.40192 -89.23373 3501 ft 256 kts 37°
2026-04-24 00:59 48.41952 -89.22436 3935 ft 283 kts
2026-04-24 00:59 48.43962 -89.22697 4458 ft 296 kts 340°
2026-04-24 00:59 48.45729 -89.24206 5213 ft 292 kts 313°
2026-04-24 00:59 48.46893 -89.26626 5974 ft 282 kts 285°
2026-04-24 01:00 48.47221 -89.29430 6790 ft 267 kts 259°
2026-04-24 01:00 48.46697 -89.32025 7574 ft 257 kts 234°
2026-04-24 01:00 48.45658 -89.34201 8325 ft 256 kts 226°
2026-04-24 01:00 48.44561 -89.36336 9096 ft 261 kts 232°
2026-04-24 01:01 48.43776 -89.38848 9831 ft 271 kts 247°
2026-04-24 01:01 48.43417 -89.41697 10381 ft 287 kts 258°
2026-04-24 01:01 48.43370 -89.44844 10579 ft 314 kts 266°
2026-04-24 01:01 48.43455 -89.47069 10722 ft 329 kts 269°
2026-04-24 01:02 48.43651 -89.50343 11162 ft 338 kts 270°
2026-04-24 01:02 48.43882 -89.53887 11821 ft 342 kts 270°
2026-04-24 01:03 48.44098 -89.57475 12431 ft 347 kts 270°
2026-04-24 01:03 48.44298 -89.61117 13077 ft 351 kts 270°
2026-04-24 01:03 48.44484 -89.64753 13677 ft 355 kts 269°
2026-04-24 01:03 48.44668 -89.68477 14273 ft 358 kts 269°
2026-04-24 01:04 48.44850 -89.72228 14859 ft 361 kts 269°
2026-04-24 01:04 48.45032 -89.76016 15454 ft 364 kts 269°
2026-04-24 01:04 48.45215 -89.79834 16034 ft 368 kts 269°
2026-04-24 01:04 48.45398 -89.83694 16623 ft 371 kts 269°
2026-04-24 01:05 48.45582 -89.87584 17183 ft 374 kts 269°
2026-04-24 01:05 48.45766 -89.91512 17757 ft 378 kts 269°
2026-04-24 01:05 48.45949 -89.95482 18303 ft 381 kts 269°
2026-04-24 01:05 48.46134 -89.99473 18867 ft 383 kts 269°
2026-04-24 01:06 48.46317 -90.03479 19421 ft 384 kts 269°
2026-04-24 01:06 48.46499 -90.07510 19968 ft 387 kts 269°
2026-04-24 01:06 48.46680 -90.11562 20523 ft 389 kts 269°
2026-04-24 01:06 48.46862 -90.15639 21072 ft 391 kts 269°
2026-04-24 01:07 48.47043 -90.19750 21615 ft 394 kts 269°
2026-04-24 01:07 48.47224 -90.23885 22169 ft 397 kts 269°
2026-04-24 01:07 48.47404 -90.28053 22699 ft 400 kts 269°
2026-04-24 01:07 48.47585 -90.32254 23239 ft 403 kts 269°
2026-04-24 01:08 48.47764 -90.36485 23695 ft 406 kts 269°
2026-04-24 01:08 48.47944 -90.40749 24174 ft 408 kts 269°
2026-04-24 01:08 48.48123 -90.45031 24640 ft 411 kts 269°
2026-04-24 01:08 48.48302 -90.49342 25090 ft 413 kts 269°
2026-04-24 01:09 48.48479 -90.53682 25576 ft 416 kts 269°
2026-04-24 01:09 48.48657 -90.58044 26019 ft 419 kts 269°
2026-04-24 01:09 48.48833 -90.62434 26474 ft 421 kts 269°
2026-04-24 01:09 48.49009 -90.66857 26916 ft 424 kts 269°
2026-04-24 01:10 48.49181 -90.71244 27330 ft 427 kts 269°
2026-04-24 01:10 48.49358 -90.75780 27749 ft 429 kts 269°
2026-04-24 01:10 48.49534 -90.80290 28171 ft 432 kts 269°
2026-04-24 01:10 48.49707 -90.84824 28562 ft 435 kts 269°
2026-04-24 01:11 48.49880 -90.89395 28956 ft 438 kts 269°
2026-04-24 01:11 48.50051 -90.93991 29318 ft 441 kts 269°
2026-04-24 01:11 48.50220 -90.98559 29709 ft 444 kts 268°
2026-04-24 01:11 48.50392 -91.03215 30075 ft 446 kts 268°
2026-04-24 01:12 48.50562 -91.07888 30460 ft 447 kts 268°
2026-04-24 01:12 48.50731 -91.12576 30843 ft 449 kts 268°
2026-04-24 01:12 48.50898 -91.17290 31198 ft 451 kts 268°
2026-04-24 01:12 48.51064 -91.22029 31564 ft 453 kts 268°
2026-04-24 01:13 48.51228 -91.26785 31904 ft 456 kts 268°
2026-04-24 01:13 48.51392 -91.31570 32226 ft 458 kts 268°
2026-04-24 01:13 48.51554 -91.36372 32508 ft 460 kts 268°
2026-04-24 01:13 48.51715 -91.41198 32741 ft 462 kts 268°
2026-04-24 01:14 48.51874 -91.46043 32952 ft 463 kts 268°
2026-04-24 01:14 48.52032 -91.50904 33142 ft 465 kts 268°
2026-04-24 01:14 48.52189 -91.55775 33380 ft 465 kts 268°
2026-04-24 01:14 48.52344 -91.60640 33628 ft 464 kts 268°
2026-04-24 01:15 48.52497 -91.65499 33870 ft 463 kts 267°
2026-04-24 01:15 48.52647 -91.70353 34116 ft 462 kts 267°
2026-04-24 01:15 48.52794 -91.75193 34334 ft 462 kts 267°
2026-04-24 01:15 48.52939 -91.80028 34581 ft 461 kts 266°
2026-04-24 01:16 48.53082 -91.84852 34805 ft 460 kts 266°
2026-04-24 01:16 48.53222 -91.89666 35043 ft 459 kts 266°
2026-04-24 01:16 48.53360 -91.94474 35269 ft 458 kts 266°
2026-04-24 01:16 48.53496 -91.99272 35492 ft 458 kts 266°
2026-04-24 01:17 48.53630 -92.04073 35586 ft 458 kts 266°
2026-04-24 01:17 48.53890 -92.13650 35586 ft 457 kts 265°
2026-04-24 01:18 48.54142 -92.23247 35580 ft 461 kts 265°
2026-04-24 01:18 48.54387 -92.32979 35574 ft 467 kts 265°
2026-04-24 01:19 48.54633 -92.42807 35569 ft 470 kts 265°
2026-04-24 01:19 48.54871 -92.52686 35563 ft 472 kts 265°
2026-04-24 01:20 48.55098 -92.62591 35559 ft 473 kts 264°
2026-04-24 01:20 48.55317 -92.72519 35548 ft 474 kts 264°
2026-04-24 01:21 48.55529 -92.82470 35546 ft 474 kts 264°
2026-04-24 01:21 48.55731 -92.92425 35543 ft 475 kts 264°
2026-04-24 01:22 48.55925 -93.02329 35524 ft 475 kts 264°
2026-04-24 01:22 48.56111 -93.12302 35512 ft 475 kts 263°
2026-04-24 01:23 48.56289 -93.22284 35503 ft 476 kts 263°
2026-04-24 01:23 48.56462 -93.32270 35507 ft 476 kts 263°
2026-04-24 01:23 48.56834 -93.37293 35508 ft 488 kts 273°
2026-04-24 01:24 48.57786 -93.42266 35509 ft 500 kts 283°
2026-04-24 01:24 48.59312 -93.47054 35509 ft 512 kts 293°
2026-04-24 01:24 48.61240 -93.51604 35507 ft 515 kts 295°
2026-04-24 01:25 48.65126 -93.60708 35510 ft 515 kts 295°
2026-04-24 01:25 48.68982 -93.69851 35513 ft 515 kts 294°
2026-04-24 01:26 48.72176 -93.77465 35512 ft 516 kts 294°
2026-04-24 01:26 48.76015 -93.86644 35513 ft 516 kts 294°
2026-04-24 01:27 48.79852 -93.95846 35511 ft 516 kts 294°
2026-04-24 01:27 48.83682 -94.05068 35507 ft 517 kts 294°
2026-04-24 01:28 48.87509 -94.14313 35506 ft 517 kts 294°
2026-04-24 01:28 48.91333 -94.23587 35490 ft 518 kts 293°
2026-04-24 01:29 48.95154 -94.32884 35500 ft 518 kts 293°
2026-04-24 01:29 48.98972 -94.42205 35491 ft 519 kts 293°
2026-04-24 01:30 49.02758 -94.51483 35489 ft 520 kts 293°
2026-04-24 01:30 49.06568 -94.60850 35488 ft 520 kts 293°
2026-04-24 01:31 49.10376 -94.70247 35494 ft 521 kts 292°
2026-04-24 01:31 49.14181 -94.79667 35489 ft 522 kts 292°
2026-04-24 01:32 49.17981 -94.89110 35487 ft 522 kts 292°
2026-04-24 01:32 49.21781 -94.98588 35491 ft 523 kts 292°
2026-04-24 01:33 49.25578 -95.08087 35425 ft 522 kts 292°
2026-04-24 01:33 49.27454 -95.12777 35119 ft 510 kts 292°
2026-04-24 01:33 49.29293 -95.17384 34541 ft 505 kts 292°
2026-04-24 01:33 49.31119 -95.21986 33842 ft 505 kts 291°
2026-04-24 01:34 49.32938 -95.26585 33090 ft 506 kts 291°
2026-04-24 01:34 49.34763 -95.31211 32309 ft 506 kts 291°
2026-04-24 01:34 49.36583 -95.35826 31543 ft 505 kts 291°
2026-04-24 01:34 49.38399 -95.40433 30795 ft 504 kts 292°
2026-04-24 01:35 49.40206 -95.45024 30071 ft 502 kts 292°
2026-04-24 01:35 49.42003 -95.49596 29328 ft 499 kts 292°
2026-04-24 01:35 49.43789 -95.54150 28501 ft 496 kts 292°
2026-04-24 01:35 49.45564 -95.58683 27693 ft 493 kts 292°
2026-04-24 01:36 49.47321 -95.63179 26925 ft 489 kts 292°
2026-04-24 01:36 49.49063 -95.67645 26166 ft 485 kts 292°
2026-04-24 01:36 49.50790 -95.72079 25428 ft 481 kts 293°
2026-04-24 01:36 49.52503 -95.76479 24708 ft 477 kts 293°
2026-04-24 01:37 49.54165 -95.80857 24011 ft 469 kts 290°
2026-04-24 01:37 49.55532 -95.85341 23326 ft 457 kts 284°
2026-04-24 01:37 49.56746 -95.89837 22571 ft 453 kts 285°
2026-04-24 01:37 49.57974 -95.94286 21785 ft 448 kts 285°
2026-04-24 01:38 49.59192 -95.98677 21018 ft 443 kts 285°
2026-04-24 01:38 49.60395 -96.03022 20267 ft 438 kts 284°
2026-04-24 01:38 49.61578 -96.07313 19532 ft 432 kts 284°
2026-04-24 01:38 49.62744 -96.11559 18816 ft 427 kts 284°
2026-04-24 01:39 49.63890 -96.15743 18114 ft 421 kts 284°
2026-04-24 01:39 49.65019 -96.19872 17361 ft 415 kts 284°
2026-04-24 01:39 49.66130 -96.23946 16588 ft 409 kts 284°
2026-04-24 01:39 49.67223 -96.27960 15826 ft 403 kts 284°
2026-04-24 01:40 49.68298 -96.31919 15078 ft 397 kts 284°
2026-04-24 01:40 49.69344 -96.35773 14366 ft 392 kts 284°
2026-04-24 01:40 49.70399 -96.39672 13634 ft 386 kts 284°
2026-04-24 01:40 49.71422 -96.43447 12865 ft 374 kts 285°
2026-04-24 01:41 49.72395 -96.47039 12105 ft 361 kts 285°
2026-04-24 01:41 49.73344 -96.50559 11338 ft 349 kts 285°
2026-04-24 01:41 49.74262 -96.53975 10599 ft 340 kts 285°
2026-04-24 01:41 49.75154 -96.57303 9864 ft 331 kts 286°
2026-04-24 01:42 49.76020 -96.60531 9328 ft 318 kts 286°
2026-04-24 01:42 49.76850 -96.63614 8801 ft 304 kts 286°
2026-04-24 01:42 49.77655 -96.66624 8276 ft 303 kts 286°
2026-04-24 01:42 49.78455 -96.69631 7784 ft 301 kts 286°
2026-04-24 01:43 49.79248 -96.72607 7283 ft 298 kts 287°
2026-04-24 01:43 49.80036 -96.75566 6788 ft 297 kts 287°
2026-04-24 01:43 49.80821 -96.78517 6296 ft 295 kts 287°
2026-04-24 01:43 49.81598 -96.81441 5815 ft 293 kts 287°
2026-04-24 01:44 49.82369 -96.84331 5316 ft 286 kts 287°
2026-04-24 01:44 49.83116 -96.87118 5106 ft 276 kts 286°
2026-04-24 01:44 49.83845 -96.89862 5029 ft 271 kts 286°
2026-04-24 01:44 49.84552 -96.92520 5024 ft 267 kts 286°
2026-04-24 01:45 49.85254 -96.95191 5020 ft 268 kts 286°
2026-04-24 01:45 49.85959 -96.97864 5016 ft 268 kts 285°
2026-04-24 01:45 49.86668 -97.00531 5014 ft 268 kts 287°
2026-04-24 01:45 49.87637 -97.02942 5013 ft 257 kts 304°
2026-04-24 01:46 49.88899 -97.04763 5021 ft 239 kts 315°
2026-04-24 01:46 49.90195 -97.06471 5014 ft 251 kts 314°
2026-04-24 01:46 49.91504 -97.08245 5021 ft 248 kts 313°
2026-04-24 01:46 49.92876 -97.09867 5023 ft 252 kts 328°
2026-04-24 01:47 49.94589 -97.10555 5020 ft 259 kts 357°
2026-04-24 01:47 49.96375 -97.10250 4996 ft 257 kts 13°
2026-04-24 01:47 49.98104 -97.09583 4785 ft 254 kts 16°
2026-04-24 01:47 49.99794 -97.08901 4193 ft 251 kts 13°
2026-04-24 01:48 50.01468 -97.08312 3680 ft 239 kts
2026-04-24 01:48 50.03087 -97.07853 3543 ft 243 kts
2026-04-24 01:48 50.04782 -97.07450 3510 ft 246 kts
2026-04-24 01:48 50.06439 -97.07425 3514 ft 231 kts 341°
2026-04-24 01:49 50.07801 -97.08468 3515 ft 212 kts 310°
2026-04-24 01:49 50.08556 -97.10302 3512 ft 197 kts 278°
2026-04-24 01:49 50.08704 -97.12363 3507 ft 190 kts 264°
2026-04-24 01:49 50.08697 -97.14382 3521 ft 183 kts 263°
2026-04-24 01:50 50.08720 -97.16358 3510 ft 182 kts 265°
2026-04-24 01:50 50.08470 -97.18256 3512 ft 180 kts 241°
2026-04-24 01:50 50.07672 -97.19703 3507 ft 173 kts 215°
2026-04-24 01:50 50.06595 -97.20291 3504 ft 159 kts 191°
2026-04-24 01:51 50.05512 -97.20431 3472 ft 156 kts 189°
2026-04-24 01:51 50.04434 -97.20607 3193 ft 157 kts 192°
2026-04-24 01:51 50.03370 -97.20812 2904 ft 148 kts 194°
2026-04-24 01:51 50.02393 -97.21011 2646 ft 137 kts 195°
2026-04-24 01:52 50.01460 -97.21261 2439 ft 140 kts 197°
2026-04-24 01:52 50.00503 -97.21535 2264 ft 139 kts 197°
2026-04-24 01:52 49.99534 -97.21776 2094 ft 145 kts 197°
2026-04-24 01:52 49.98518 -97.22030 1967 ft 150 kts 196°
2026-04-24 01:53 49.97496 -97.22274 1820 ft 146 kts 197°
2026-04-24 01:53 49.96517 -97.22539 1607 ft 140 kts 198°
2026-04-24 01:53 49.95566 -97.22765 1418 ft 136 kts 195°
2026-04-24 01:53 49.94637 -97.22991 1229 ft 134 kts 195°
2026-04-24 01:54 49.93710 -97.23207 1050 ft 140 kts 195°
2026-04-24 01:54 49.92721 -97.23433 885 ft 140 kts 193°
2026-04-24 01:54 49.91824 -97.23669 795 ft 118 kts 189°
2026-04-24 01:54 49.91167 -97.23821 795 ft 71 kts 187°
2026-04-24 01:55 49.90840 -97.23812 796 ft 30 kts 137°
2026-04-24 01:55 49.90818 -97.23748 794 ft 0 kts 98°
2026-04-24 01:55 49.90824 -97.23625 792 ft 25 kts 77°
2026-04-24 01:56 49.90867 -97.23311 791 ft 32 kts 81°
2026-04-24 01:56 49.90887 -97.22961 790 ft 32 kts 88°
2026-04-24 01:56 49.90803 -97.22675 789 ft 25 kts 126°
2026-04-24 01:56 49.90755 -97.22461 789 ft 7 kts 111°
2026-04-24 01:57 49.90740 -97.22438 789 ft 9 kts 137°
2026-04-24 01:57 49.90695 -97.22426 790 ft 0 kts 177°
2026-04-24 01:57 49.90688 -97.22425 790 ft 0 kts 175°
2026-04-24 02:00 48.37238 -89.31402 659 ft 0 kts 27°
2026-04-24 02:01 48.37246 -89.31386 659 ft 7 kts 45°
2026-04-24 02:02 48.37291 -89.31349 659 ft 1 kts 355°
2026-04-24 02:02 48.37302 -89.31429 659 ft 15 kts 266°
2026-04-24 02:02 48.37256 -89.31633 660 ft 30 kts 251°
2026-04-24 02:02 48.37180 -89.31951 661 ft 34 kts 251°
2026-04-24 02:03 48.37141 -89.32539 664 ft 25 kts 298°
2026-04-24 02:03 48.37143 -89.32827 665 ft 38 kts 251°
2026-04-24 02:03 48.37067 -89.33239 669 ft 32 kts 255°
2026-04-24 02:04 48.37043 -89.33288 669 ft 3 kts 199°
2026-04-24 02:04 48.37041 -89.33241 669 ft 6 kts 69°
2026-04-24 02:04 48.37046 -89.33226 669 ft 5 kts 66°
2026-04-24 02:04 48.37154 -89.32788 665 ft 91 kts 70°
2026-04-24 02:05 48.37450 -89.31532 733 ft 155 kts 70°
2026-04-24 02:05 48.37828 -89.29906 1314 ft 174 kts 71°
2026-04-24 02:05 48.38239 -89.28119 2056 ft 186 kts 74°
2026-04-24 02:05 48.38702 -89.26239 2807 ft 198 kts 76°
2026-04-24 02:06 48.39448 -89.24294 3251 ft 236 kts 53°
2026-04-24 02:06 48.40057 -89.23507 3482 ft 251 kts 40°
2026-04-24 02:07 48.40508 -89.23092 3578 ft 234 kts 33°
2026-04-24 02:07 48.37238 -89.31402 659 ft 0 kts 27°